Home   Weather   Jalalabad   Past weeks

Flag for Afghanistan Past Weather in Jalalabad, Afghanistan — Yesterday and Last 2 Weeks

Now
79 °F

Passing clouds.


Feels Like: 80 °F
Forecast: 70 / 97 °F
Wind: 5 mph from Southwest

Location: Peshawar Airport

Current Time: Sep 1, 2016 at 2:18:04 AM

Latest Report: Sep 1, 2016 at 1:30 AM


Visibility: 2 mi

Pressure: 29.65 "Hg (27.77 "Hg at 572m altitude)

Humidity: 54%

Dew Point: 61 °F

Location of JalalabadLocation

Past Weather in Jalalabad — Graph

°F

Jalalabad Temperature Yesterday

Maximum temperature yesterday: 97 °F (at 2:30 PM)
Minimum temperature yesterday: 77 °F (at 4:29 AM)
Average temperature yesterday: 87 °F

High & Low Weather Summary for the Past Weeks

 TemperatureHumidityPressure
High100 °F (Aug 19, 12:30 PM)94% (Aug 17, 2:30 AM)29.89 "Hg (Aug 17, 2:30 AM)
Low72 °F (Aug 17, 2:30 AM)37% (Aug 23, 2:30 PM)29.53 "Hg (Aug 17, 7:30 AM)
Average87 °F57%29.67 "Hg
* Reported Aug 17 12:30 AM — Sep 1 12:30 AM, Jalalabad, Weather by CustomWeather, © 2016

Note: Actual official high and low records may vary slightly from our data, if they occured in-between our weather recording intervals... More about our weather records

Advertising

Jalalabad Weather History for the Previous 24 Hours

Scroll right to see more
 ConditionsComfort  
Time TempWeatherWind HumidityBarometerVisibility
12:30 AM
Thu, Sep 1
81 °FHaze.5 mph51%29.65 "Hg2 mi
11:30 PM
Wed, Aug 31
81 °FPassing clouds.5 mph51%29.68 "Hg2 mi
10:30 PM82 °FPassing clouds.7 mph48%29.68 "Hg2 mi
9:30 PM86 °FPassing clouds.7 mph52%29.65 "Hg2 mi
8:30 PM88 °FPassing clouds.7 mph49%29.65 "Hg2 mi
8:00 PM90 °FPassing clouds.7 mph46%29.62 "Hg2 mi
7:30 PM90 °FPassing clouds.7 mph46%29.62 "Hg2 mi
7:00 PM91 °FPassing clouds.7 mph46%29.62 "Hg2 mi
6:30 PM91 °FPassing clouds.7 mph46%29.62 "Hg2 mi
6:00 PM93 °FBroken clouds.12 mph44%29.62 "Hg3 mi
5:30 PM93 °FBroken clouds.12 mph44%29.62 "Hg3 mi
4:30 PM95 °FScattered clouds.9 mph41%29.59 "Hg3 mi
4:00 PM97 °FHaze.7 mph39%29.59 "Hg3 mi
3:30 PM97 °FHaze.7 mph39%29.59 "Hg3 mi
3:00 PM97 °FHaze.7 mph39%29.62 "Hg3 mi
2:30 PM97 °FHaze.7 mph39%29.62 "Hg3 mi
2:00 PM95 °FHaze.7 mph41%29.65 "Hg3 mi
1:30 PM95 °FHaze.7 mph41%29.65 "Hg3 mi
1:00 PM91 °FHaze.12 mph46%29.68 "Hg3 mi
12:30 PM91 °FHaze.12 mph46%29.68 "Hg3 mi
12:00 PM90 °FHaze.12 mph46%29.68 "Hg3 mi
11:30 AM90 °FHaze.12 mph46%29.71 "Hg3 mi
11:00 AM88 °FHaze.12 mph49%29.74 "Hg3 mi
10:30 AM88 °FHaze.12 mph49%29.74 "Hg3 mi
10:00 AM86 °FHaze.9 mph52%29.71 "Hg3 mi
9:30 AM86 °FHaze.9 mph52%29.71 "Hg3 mi
9:00 AM82 °FScattered clouds.7 mph58%29.74 "Hg2 mi
8:30 AM82 °FScattered clouds.7 mph58%29.74 "Hg2 mi
8:00 AM81 °FScattered clouds.7 mph62%29.71 "Hg2 mi
7:30 AM81 °FScattered clouds.7 mph62%29.71 "Hg2 mi
6:30 AM79 °FScattered clouds.7 mph65%29.71 "Hg2 mi
5:30 AM77 °FScattered clouds.7 mph65%29.71 "Hg2 mi
4:29 AM77 °FPartly cloudy.9 mph65%29.65 "Hg2 mi
3:30 AM79 °FThundershowers. Passing clouds.7 mph65%29.65 "Hg2 mi
2:30 AM79 °FPassing clouds.5 mph65%29.65 "Hg2 mi
Weather by CustomWeather, © 2016

See weather overviewHow to use our weather pages